Torna al catalogo

YZ-1 R/B

AttivoMEO
NORAD 43248·ROCKET BODY·🇨🇳 China

Lanciato Mar 29, 2018 da Xichang Satellite Launch Center

Loading…

Prossimi Passaggi (prossime 24 ore)

TLE

AggiornatoSource: Space-Track

Epoca: Sep 13, 2026, 10:27 UTC

1 43248U 18029D   26256.43545953 -.00000062  00000-0  00000-0 0  9999
2 43248  54.5866 307.8881 0101146  44.1367 316.7355  1.77724232 54914

Traccia YZ-1 R/B in tempo reale con AllMySat

Download on the App Store